AFR816 LFPG-TFFF

Flight info

Callsign AFR816
Flight time N/A
Altitude 34000
Route LGL UN491 UPALO/N0475F350 UN585 FEJAC DCT BADUR DCT REGHI/M082F340 DCT ETIKI DCT 46N020W 42N030W/M082F360 38N035W 33N040W 28N045W/M082F380 24N050W DCT DRDGE/N0473F380 DCT UMAMU UMAMU2D
Aircraft B77W/H-SDE1E2E3FGHIJ2J3J4J5M1RWXY/LB1D1

Departure

Time N/A
Airport Charles de Gaulle International Airport (LFPG)

Arrival

Time 2026-05-07 18:06
Airport Martinique Aimé Césaire International Airport (TFFF)
Time Latitude Longitude Altitude Speed Heading
2026-05-07 17:43 14.96689 -60.33533 34069 ft 434 kts 192°
2026-05-07 17:43 14.93738 -60.33954 33495 ft 433 kts 192°
2026-05-07 17:43 14.90754 -60.34381 32903 ft 431 kts 192°
2026-05-07 17:44 14.87788 -60.34804 32332 ft 429 kts 192°
2026-05-07 17:44 14.84835 -60.35226 31780 ft 427 kts 192°
2026-05-07 17:44 14.81893 -60.35646 31223 ft 425 kts 192°
2026-05-07 17:44 14.78964 -60.36065 30693 ft 423 kts 191°
2026-05-07 17:45 14.76049 -60.36481 30167 ft 422 kts 191°
2026-05-07 17:45 14.73145 -60.36895 29560 ft 420 kts 191°
2026-05-07 17:45 14.70260 -60.37306 28966 ft 418 kts 191°
2026-05-07 17:45 14.67386 -60.37716 28365 ft 416 kts 191°
2026-05-07 17:46 14.64520 -60.38124 27784 ft 414 kts 191°
2026-05-07 17:46 14.61704 -60.38525 27222 ft 413 kts 191°
2026-05-07 17:46 14.58864 -60.38930 26670 ft 411 kts 191°
2026-05-07 17:46 14.56036 -60.39332 26124 ft 410 kts 191°
2026-05-07 17:47 14.53211 -60.39735 25591 ft 408 kts 191°
2026-05-07 17:47 14.50401 -60.40135 25061 ft 407 kts 191°
2026-05-07 17:47 14.47597 -60.40534 24544 ft 406 kts 191°
2026-05-07 17:47 14.44802 -60.40932 24037 ft 405 kts 190°
2026-05-07 17:48 14.42013 -60.41329 23519 ft 404 kts 190°
2026-05-07 17:48 14.39230 -60.41724 22937 ft 403 kts 190°
2026-05-07 17:48 14.36454 -60.42119 22354 ft 402 kts 190°
2026-05-07 17:48 14.33679 -60.42514 21776 ft 401 kts 189°
2026-05-07 17:49 14.30914 -60.42906 21211 ft 401 kts 189°
2026-05-07 17:49 14.28151 -60.43299 20659 ft 400 kts 189°
2026-05-07 17:49 14.25402 -60.43690 20117 ft 399 kts 189°
2026-05-07 17:49 14.22651 -60.44080 19588 ft 399 kts 189°
2026-05-07 17:50 14.19936 -60.44466 19055 ft 398 kts 188°
2026-05-07 17:50 14.17159 -60.44860 18551 ft 398 kts 188°
2026-05-07 17:50 14.14521 -60.45437 17974 ft 391 kts 202°
2026-05-07 17:50 14.12220 -60.46886 17381 ft 388 kts 224°
2026-05-07 17:51 14.10548 -60.49039 16838 ft 384 kts 243°
2026-05-07 17:51 14.09618 -60.51587 16315 ft 379 kts 261°
2026-05-07 17:51 14.09456 -60.54263 15816 ft 373 kts 276°
2026-05-07 17:51 14.09959 -60.56866 15292 ft 368 kts 293°
2026-05-07 17:52 14.11083 -60.59185 14869 ft 358 kts 301°
2026-05-07 17:52 14.12285 -60.61408 14563 ft 352 kts 301°
2026-05-07 17:52 14.13476 -60.63592 14228 ft 347 kts 301°
2026-05-07 17:52 14.14646 -60.65748 13899 ft 343 kts 301°
2026-05-07 17:53 14.15800 -60.67889 13545 ft 338 kts 301°
2026-05-07 17:53 14.16927 -60.69997 13188 ft 334 kts 301°
2026-05-07 17:53 14.17664 -60.71381 12959 ft 332 kts 301°
2026-05-07 17:53 14.19135 -60.74154 12489 ft 327 kts 301°
2026-05-07 17:54 14.20205 -60.76179 12148 ft 324 kts 300°
2026-05-07 17:54 14.21275 -60.78205 11804 ft 321 kts 300°
2026-05-07 17:54 14.21981 -60.79544 11571 ft 319 kts 301°
2026-05-07 17:54 14.23039 -60.81551 11252 ft 316 kts 301°
2026-05-07 17:55 14.24083 -60.83532 10916 ft 313 kts 301°
2026-05-07 17:55 14.25117 -60.85496 10571 ft 311 kts 300°
2026-05-07 17:55 14.26143 -60.87446 10257 ft 308 kts 300°
2026-05-07 17:55 14.27162 -60.89383 9935 ft 306 kts 300°
2026-05-07 17:56 14.28173 -60.91304 9577 ft 304 kts 300°
2026-05-07 17:56 14.29182 -60.93223 9255 ft 302 kts 300°
2026-05-07 17:56 14.30177 -60.95108 8978 ft 298 kts 300°
2026-05-07 17:56 14.31156 -60.96974 8702 ft 294 kts 300°
2026-05-07 17:57 14.32122 -60.98814 8429 ft 289 kts 300°
2026-05-07 17:57 14.33072 -61.00623 8150 ft 285 kts 300°
2026-05-07 17:57 14.34011 -61.02411 7878 ft 281 kts 300°
2026-05-07 17:57 14.34937 -61.04174 7606 ft 277 kts 300°
2026-05-07 17:58 14.35853 -61.05918 7237 ft 277 kts 299°
2026-05-07 17:58 14.36776 -61.07677 6820 ft 280 kts 299°
2026-05-07 17:58 14.37706 -61.09447 6414 ft 282 kts 299°
2026-05-07 17:58 14.38632 -61.11214 5971 ft 284 kts 299°
2026-05-07 17:59 14.39574 -61.13008 5545 ft 285 kts 299°
2026-05-07 17:59 14.40522 -61.14816 5117 ft 287 kts 299°
2026-05-07 17:59 14.41476 -61.16635 4699 ft 287 kts 299°
2026-05-07 17:59 14.42404 -61.18405 4237 ft 275 kts 301°
2026-05-07 18:00 14.43382 -61.20024 3920 ft 256 kts 317°
2026-05-07 18:00 14.44846 -61.20864 3604 ft 235 kts 353°
2026-05-07 18:00 14.46417 -61.20781 3368 ft 223 kts 14°
2026-05-07 18:00 14.47946 -61.20423 3192 ft 229 kts 21°
2026-05-07 18:01 14.49382 -61.19699 3105 ft 230 kts 31°
2026-05-07 18:01 14.50774 -61.18897 3044 ft 229 kts 30°
2026-05-07 18:01 14.52167 -61.18111 3018 ft 226 kts 30°
2026-05-07 18:01 14.53540 -61.17351 2987 ft 220 kts 30°
2026-05-07 18:02 14.55992 -61.15678 2979 ft 207 kts 58°
2026-05-07 18:02 14.56357 -61.14276 3011 ft 204 kts 94°
2026-05-07 18:02 14.56130 -61.12855 2852 ft 200 kts 94°
2026-05-07 18:03 14.56180 -61.11472 2459 ft 187 kts 76°
2026-05-07 18:03 14.56653 -61.10263 2012 ft 176 kts 63°
2026-05-07 18:03 14.57221 -61.09231 1707 ft 154 kts 60°
2026-05-07 18:03 14.57684 -61.08307 1389 ft 136 kts 70°
2026-05-07 18:04 14.57875 -61.07394 1153 ft 131 kts 79°
2026-05-07 18:04 14.58068 -61.06440 962 ft 142 kts 76°
2026-05-07 18:04 14.58222 -61.05409 842 ft 143 kts 79°
2026-05-07 18:04 14.58370 -61.04427 560 ft 130 kts 76°
2026-05-07 18:05 14.58534 -61.03551 386 ft 123 kts 77°
2026-05-07 18:05 14.58692 -61.02675 239 ft 126 kts 77°
2026-05-07 18:05 14.58858 -61.01758 66 ft 132 kts 77°
2026-05-07 18:05 14.59009 -61.00902 27 ft 105 kts 80°
2026-05-07 18:06 14.59107 -61.00318 21 ft 60 kts 80°
2026-05-07 18:06 14.59154 -61.00060 25 ft 14 kts 72°
2026-05-07 18:06 14.59214 -61.00030 27 ft 7 kts 358°
2026-05-07 18:06 14.59264 -61.00035 28 ft 7 kts 354°
2026-05-07 18:07 14.59314 -61.00042 26 ft 8 kts 353°
2026-05-07 18:07 14.59338 -61.00050 28 ft 4 kts 335°
2026-05-07 18:07 14.59362 -61.00069 28 ft 5 kts 313°
2026-05-07 18:07 14.59375 -61.00091 28 ft 3 kts 298°
2026-05-07 18:08 14.59389 -61.00119 24 ft 5 kts 298°
2026-05-07 18:08 14.59410 -61.00135 26 ft 3 kts 340°
2026-05-07 18:08 14.59428 -61.00131 25 ft 4 kts 19°
2026-05-07 18:08 14.59447 -61.00122 26 ft 3 kts 25°
2026-05-07 18:09 14.59466 -61.00110 26 ft 0 kts 30°
2026-05-07 18:09 14.59474 -61.00105 25 ft 2 kts 32°
2026-05-07 18:09 14.59475 -61.00104 25 ft 0 kts 32°
2026-05-07 18:10 14.49960 -61.19365 3073 ft 230 kts 31°
2026-05-07 18:10 14.58867 -61.01709 63 ft 132 kts 77°